Terminal Aerodrome Forecast
Issued by NWS

Home | Current Version | Previous Version | Text Only | Print | Product List | Glossary On
Versions: 1 2 3 4 5 6 7 8 9 10 11 12 13 14 15
000
FTUS41 KPHI 261100
TAFMIV
TAF
KMIV 261135Z 2612/2712 VRB03KT P6SM SCT100
     FM261500 21006KT P6SM SCT050
     FM262200 17006KT P6SM SCT050 BKN250
      TEMPO 2702/2706 4SM BR
     FM270800 VRB03KT 4SM BR OVC250
     FM271000 VRB03KT 4SM BR OVC100=

USA.gov is the U.S. government's official web portal to all federal, state and local government web resources and services.